SL-12 DEB, 44560

Orbit data source: Space-Track

SL-12 DEB, 44560 is space debris in HEO originally from a launch on Thu, 02 Sep 2010 UTC launched from the Tyuratam Missile And Space Complex (TTMTR). Debris objects in space refer to the collection of defunct objects orbiting the Earth. Examples of debris include non-operational satellites, rocket bodies, and fragments generated from explosions, collisions, or faulty payload assembly.

Loading next visibility...
Identifier
44560, 2010-041AF
Orbit
HEO
Country
Flag of CISCIS
Related business
Manufacturer
RKKE
Mission
Spacecraft
Bus & Motor
Unknown
Mass
Unknown
Launch date (UTC)
2010-09-02 (15 years ago)
Launch vehicle
Unknown
Launch site
Tyuratam Missile And Space Complex (TTMTR)
Object type
Payload
Rocket body
Debris
Shape & HBR
Unknown shape, 0.7 m
Radar Cross Section
Medium (>0.1 m² and <1 m²)

Expand to show TLE details & history
Last TLE update: 1 day ago

TLE from 1 day ago
0 SL-12 DEB
1 44560U 10041AF  26034.03345034  .00000633  00000-0  22167-2 0  9994
2 44560  65.2912  82.9416 5468199 274.5324  28.1155  4.57419147104543
Epoch: 2026-02-03T00:48Z
TLE epoch observation values (Epoch: 2026-02-03T00:48:10.109Z)
Latitude
0.00002°
Longitude
-62.30365°
Altitude
3,932.616 km
Speed
7.164 km/s
True Right ascension
05h 31m 50s
True Declination
0° 00' 00"
Sunlit
Object was in daylight at epoch
Visualization orbit readout
Latitude
Unknown
Longitude
Unknown
Altitude
Unknown
Speed
Unknown
Apparent Right ascension
Unknown
Apparent Declination
Unknown
Sunlit
N/A
Visualization observer readout
Local Sidereal Time
12:37:52
Azimuth
Unknown
Elevation
Unknown
Doppler factor
Unknown
Orbital elements
Apogee altitude
17,331.922 km
Perigee altitude
568.326 km
Semi-major axis
15,328.261 km
Eccentricity
0.54682
Inclination
65.2912°
RAAN
82.9416°
Arg. of periapsis
274.5324°
True anomaly
85.55265°
Mean anomaly
28.1155°
Eccentric anomaly
53.20415°
Mean motion
1.14368 °/min
Orbital period
314.77 mins
BSTAR
0.0022167
Loading maneuver chart data...
Computing Atmospheric mass density...
Loading historical data...
Loading historical data...
Loading historical data...
Loading historical data...
Loading historical data...
Loading historical data...
Loading historical data...

Documentation

Showing up to 5 results
|